www.pogodaiklimat.ru

Погода и климат >> Архив погоды >> Мали >> Kayes


ПОГОДА в Kayes

  • Прогноз погоды в Kayes
  • Монитор погоды в Kayes
  • Климат города

АРХИВ ПОГОДЫ в Kayes

Время (UTC), дата Ветер
(напр.,м/с)
 
Видим.   Явления Облачность Т
(С)
Тd
(С)
f
(%)
Тe
(С)
Тes
(С)
Комфортность P
(гПа)
Po
(гПа)
Тmin
(С)
Tmax
(С)
R
(мм)
R24
(мм)
S
(см)
03 13.07 ЮЗ 4 10 км 8/1 900 м
[Sc Ci sp]
+28.9 +24.4 77 +41 +41 опасность
перегрева
1011.7 1005.5
06 13.07 ЮЗ 4 10 км 6/3 900 м
[Sc Ci sp]
+28.6 +24.3 78 +40 +40 очень
душно
1011.9 1005.7 +28.6
09 13.07 З 3 10 км 6/1 900 м
[Sc Ci sp]
+30.0 +24.3 72 +42 +47 опасность
перегрева
1015.3 1009.0
12 13.07 ЮЗ 3 10 км 8/3 900 м
[Sc Ci sp]
+31.7 +23.9 63 +43 +54 опасность
перегрева
1014.7 1008.5
15 13.07 З 2 10 км 9/4 900 м
[Sc Ci sp]
+34.4 +23.0 52 +45 +52 опасность
перегрева
1011.5 1005.0
18 13.07 ЮЗ 4 10 км {гроза} 8/3 900 м
[Sc Ac lent Ci sp]
+34.0 +23.9 56 +46 +46 опасность
перегрева
1009.1 1002.9 +35.2
21 13.07 С 2 10 км 6/1 900 м
[Sc Ac lent Ci sp]
+32.0 +25.0 67 +46 +46 опасность
перегрева
1012.7 1006.5
00 14.07 З 3 10 км 6/0
[Ac lent Ci sp]
+30.5 +25.6 75 +45 +45 опасность
перегрева
1013.8 1007.6
03 14.07 З 2 10 км 8/0
[Ac lent Ci sp]
+29.0 +24.8 78 +41 +41 опасность
перегрева
1012.7 1006.5
06 14.07 ЮЗ 3 10 км 9/0
[Ac lent Ci sp]
+27.5 +24.7 85 +39 +39 очень
душно
1013.5 1007.3 +27.5
09 14.07 З 3 10 км 8/1 900 м
[Sc Ac lent Ci sp]
+28.8 +24.8 79 +41 +45 опасность
перегрева
1013.4 1007.2
12 14.07 З 2 10 км 9/1 900 м
[Sc Ac lent Ci sp]
+32.0 +25.0 67 +46 +56 опасность
перегрева
1013.6 1007.4
15 14.07 З 3 10 км 8/4 900 м
[Sc Ci sp]
+35.1 +25.3 57 +49 +56 опасность
перегрева
1011.4 1005.2
18 14.07 СЗ 3 10 км 6/3 900 м
[Sc Ci sp]
+34.7 +24.5 56 +48 +48 опасность
перегрева
1010.1 1003.9 +35.4
21 14.07 ЮЗ 3 10 км зарница 6/3 900 м
[Cb cap Ci sp]
+33.0 +24.6 61 +46 +46 опасность
перегрева
1011.0 1004.8
00 15.07 ЮЗ 2 10 км 6/1 900 м
[Sc Ci sp]
+30.4 +24.8 72 +43 +43 опасность
перегрева
1011.0 1004.8
03 15.07 ЮЗ 4 10 км 5/1 900 м
[Sc Ci sp]
+30.2 +24.7 72 +43 +43 опасность
перегрева
1009.5 1003.3
06 15.07 ЮЗ 5 10 км 6/1 900 м
[Sc Ci sp]
+29.6 +23.6 70 +40 +40 очень
душно
1010.8 1004.6 +29.4
09 15.07 ЮЗ 7 10 км 6/1 900 м
[Sc Ci sp]
+29.8 +24.4 73 +42 +44 опасность
перегрева
1011.5 1005.3
12 15.07 ЮЗ 7 10 км 9/5 900 м
[Sc Ci sp]
+32.3 +25.2 66 +46 +48 опасность
перегрева
1010.7 1004.5
15 15.07 ЮЗ 5 10 км 9/6 900 м
[Sc Ci sp]
+34.0 +25.0 59 +47 +50 опасность
перегрева
1010.1 1003.9
18 15.07 ЮЗ 6 10 км 6/3 900 м
[Sc Ci sp]
+33.4 +24.4 59 +46 +46 опасность
перегрева
1009.3 1003.1 +35.0
21 15.07 ЮЗ 4 10 км 6/1 900 м
[Sc Ci sp]
+31.7 +24.4 65 +44 +44 опасность
перегрева
1009.7 1003.5
00 16.07 ЮЗ 4 10 км 6/1 900 м
[Sc Ci sp]
+30.8 +24.3 68 +43 +43 опасность
перегрева
1010.7 1004.5
03 16.07 ЮЗ 5 10 км 6/1 900 м
[Sc Ci sp]
+29.4 +24.6 75 +42 +42 опасность
перегрева
1009.2 1003.0
06 16.07 ЮЗ 3 10 км 3/1 900 м
[Sc Ci sp]
+28.8 +24.8 79 +41 +41 опасность
перегрева
1010.1 1003.9 +28.7
09 16.07 ЮЗ 5 10 км 8/6 900 м
[Sc Ci sp]
+30.0 +24.3 72 +42 +44 опасность
перегрева
1012.6 1006.4
12 16.07 ЮЗ 5 10 км 8/6 900 м
[Sc Ci sp]
+32.5 +23.3 58 +43 +47 опасность
перегрева
1011.9 1005.7
15 16.07 ЮЗ 4 10 км 8/6 900 м
[Sc Ci sp]
+34.4 +23.4 53 +45 +49 опасность
перегрева
1009.2 1003.0
18 16.07 Ю 5 10 км 8/4 900 м
[Sc Ci sp]
+34.4 +22.7 51 +44 +45 опасность
перегрева
1008.5 1002.3 +35.6
21 16.07 Ю 3 10 км 6/0
[Ac lent Ci sp]
+32.5 +24.0 61 +44 +44 опасность
перегрева
1011.3 1005.1
00 17.07 Ю 3 10 км 8/0
[Ac lent]
+31.2 +23.8 65 +43 +43 опасность
перегрева
1012.7 1006.5
03 17.07 Ю 2 10 км 6/0
[Ac lent]
+29.5 +23.0 68 +39 +39 очень
душно
1010.9 1004.7
06 17.07 Ю 4 10 км 3/0
[Ci sp]
+28.4 +23.5 75 +39 +39 очень
душно
1011.8 1005.6 +28.4
09 17.07 Ю 3 10 км 6/3 900 м
[Sc Ci sp]
+29.4 +23.7 71 +40 +44 очень
душно
1013.1 1006.9
12 17.07 ЮЗ 3 10 км 8/6 900 м
[Sc Ci sp]
+31.5 +23.7 63 +43 +49 опасность
перегрева
1013.1 1006.9
15 17.07 СВ 4 10 км 9/8 900 м
[Sc Ci sp]
+31.4 +25.0 69 +45 +47 опасность
перегрева
1010.7 1004.5
18 17.07 ЮВ 3 10 км 9/5 900 м
[Cu Sc Ac lent Ci sp]
+33.0 +25.1 63 +47 +47 опасность
перегрева
1009.6 1003.4 +35.1
21 17.07 З 3 10 км зарница 9/4 900 м
[Cb cap Ac lent Ci sp]
+30.5 +23.2 65 +41 +41 опасность
перегрева
1011.5 1005.3
00 18.07 штиль 0 10 км зарница 9/4 900 м
[Cb cap Ac lent Ci sp]
+29.4 +23.5 71 +40 +40 очень
душно
1012.6 1006.4
03 18.07 ЮЗ 3 10 км зарница 8/4 900 м
[Cb cap Ac lent]
+28.5 +24.4 79 +40 +40 очень
душно
1011.4 1005.2
06 18.07 ЮЗ 4 10 км 9/3 900 м
[Sc Ac lent]
+27.2 +23.7 81 +37 +37 очень
душно
1012.5 1006.3 +27.0
09 18.07 ЮЗ 4 10 км 8/4 900 м
[Sc Ac lent Ci sp]
+29.0 +23.3 71 +39 +41 очень
душно
1013.4 1007.1
12 18.07 З 4 10 км 9/6 900 м
[Sc Ac lent Ci sp]
+32.3 +24.1 62 +44 +48 опасность
перегрева
1013.4 1007.2
15 18.07 З 4 10 км 8/6 900 м
[Sc Ci sp]
+34.5 +23.2 52 +45 +49 опасность
перегрева
1011.2 1005.0
18 18.07 СЗ 2 10 км 8/6 900 м
[Cb cap Ac lent Ci sp]
+35.0 +22.1 47 +44 +44 опасность
перегрева
1009.7 1003.5 +36.3 800
21 18.07 В 10 6000 м гроза, ливневой дождь н/о +25.0 +23.2 90 +33 +33 очень
душно
1013.7 1007.4
00 19.07 0 10 км гроза, ливневой дождь н/о +23.8 +23.3 97 1013.0 1006.7 19
03 19.07 0 10 км н/о +23.4 +22.8 96 1012.3 1006.0
06 19.07 ЮЗ 3 10 км 9/3 900 м
[Sc Ac As Ci sp]
+24.6 +23.7 95 +33 +33 очень
душно
1012.4 1006.1 +23.0 20
09 19.07 З 3 10 км 9/5 900 м
[Sc Ac As]
+26.5 +23.8 85 +36 +38 очень
душно
1014.8 1008.4
12 19.07 СЗ 4 10 км 9/5 900 м
[Sc Ac As]
+29.0 +24.0 74 +40 +43 очень
душно
1014.7 1008.4
15 19.07 З 3 10 км 9/8 900 м
[Sc Ci sp]
+31.5 +24.3 66 +44 +46 опасность
перегрева
1012.0 1005.7
18 19.07 СЗ 2 10 км 4/1 900 м
[Sc Ci sp]
+32.3 +24.6 64 +45 +47 опасность
перегрева
1010.7 1004.4 +32.6
21 19.07 З 2 10 км 5/1 900 м
[Sc Ci sp]
+30.0 +25.8 78 +45 +45 опасность
перегрева
1012.8 1006.4

 

Местоположение метеостанции Kayes (Мали): широта 14.43 долгота -11.43 высота над уровнем моря 47 м.

В архиве по умолчанию представлена погода в Kayes за последнюю неделю. Архивные данные за месяц целиком и за предыдущие месяцы, начиная с января 2011 года, Вы можете получить, выбрав интересующий диапазон дат из раскрывающегося списка и нажав кнопку "Ввод!".


*Определитесь, кто Вы:
робот инопланетянин человек

Внимание! Время в таблицах - всемирное. Для получения местного времени необходимо прибавить поправку, которая в Kayes равна 0 ч.

Смотрите также архив погоды в соседних городах и на ближайших метеорологических станциях:

Погода в Yelimane (Мали) (121 км)
Погода в Kenieba (Мали) (177 км)
Погода в Fatoto (Гамбия) (221 км)
Погода в Kedougou (Сенегал) (223 км)
Погода в Matam (Сенегал) (238 км)
Погода в Nioro Du Sahel (Мали) (241 км)
Погода в Kiffa (Мавритания) (245 км)
Погода в Tambacounda (Сенегал) (254 км)
Погода в Kita (Мали) (260 км)
Погода в Kaedi (Мавритания) (294 км)

Пояснения к столбцам:

Ветер - указаны скорость ветра в м/с - средняя за 10 мин, порывы в срок и между сроками (в фигурных скобках) и направление, откуда дует ветер: С - северный, СВ - северо-восточный, В - восточный, ЮВ - юго-восточный, Ю - южный, ЮЗ - юго-западный, З - западный, СЗ - северо-западный.
Видимость - горизонтальная дальность видимости в метрах или километрах. При видимости от 1 до 10 км при отсутствии осадков обычно наблюдается дымка, при ухудшении видимости до 1 км и менее - туман. В сухую погоду видимость может ухудшаться дымом, пылью или мглою.
Явления - указаны атмосферные явления, наблюдавшиеся в срок или в последний час перед сроком; фигурными скобками обозначены явления, наблюдавшиеся между сроками (за 1-3 часа до срока); квадратными скобками обозначены град или гололедные отложения с указанием их диаметра в мм.
Облачность - указаны через наклонную черту общая и нижняя облачность в баллах и высота нижней границы облаков в метрах; квадратными скобками обозначены формы облаков: Ci - перистые, Cs - перисто-слоистые, Cc - перисто-кучевые, Ac - высококучевые, As - высокослоистые, Sc - слоисто-кучевые, Ns - слоисто-дождевые, Cu - кучевые, Cb - кучево-дождевые. Подробнее классификацию облаков см. в Атласе облаков (PDF).
T - Температура воздуха - температура, измеренная на высоте 2 м над землей.
Td - Температура точки росы - температура, при понижении до которой содержащийся в воздухе водяной пар достигнет насыщения.
f - Относительная влажность воздуха - влажноcть воздуха, измеренная на высоте 2 м над землей.
Te - Эффективная температура - температура, которую ощущает одетый по сезону человек в тени. Характеристика душности погоды. При расчете учитывается влияние влажности воздуха и скорости ветра на теплоощущения человека.
Tes - Эффективная температура на солнце - температура, которую ощущает человек, с поправкой на солнечный нагрев. Характеристика знойности погоды. Зависит от высоты солнца над горизонтом, облачности и скорости ветра. Ночью, в пасмурную погоду, а также при ветре 12 м/с и более поправка равна нулю.
P - Атмосферное давление - приведенное к уровню моря атмосферное давление.
Po - Атмосферное давление - измеренное на уровне метеостанции атмосферное давление.
Tmin - Минимальная температура - минимум температуры воздуха на высоте 2 м над землей.
Tmax - Максимальная температура - максимум температуры воздуха на высоте 2 м над землей.
R - Количество осадков - Количество выпавших осадков за период времени, мм. При наведении курсора мыши на число - период времени, за который выпало указанное количество осадков.
R24 - Количество осадков - Количество выпавших осадков за 24 часа, мм.
S - Снежный покров - Высота снежного покрова, см. При наведении курсора мыши на число - состояние снежного покрова и степень покрытия местности в баллах.